Weather History for Sandberg, CA

Change the Weather History Date:

Saturday, May 10, 2014

  Actual Average Record
Temperature  
Mean Temperature 53 °F 56 °F  
Max Temperature 61 °F 65 °F 84 °F (1997)
Min Temperature 45 °F 48 °F 34 °F (1998)
Degree Days  
Heating Degree Days 12 9  
Month to date heating degree days 71 104  
Since 1 July heating degree days 2464 3879  
Cooling Degree Days 0 1  
Month to date cooling degree days 18 8  
Year to date cooling degree days 49 16  
Growing Degree Days 3 (Base 50)    
Moisture  
Dew Point 31 °F    
Average Humidity 46    
Maximum Humidity 70    
Minimum Humidity 22    
Precipitation  
Precipitation 0.00 in 0.02 in 0.28 in (1957)
Month to date precipitation T 0.21  
Year to date precipitation 3.58 8.22  
Since 1 July precipitation 4.36 12.07  
Sea Level Pressure  
Sea Level Pressure 29.91 in    
Wind  
Wind Speed 30 mph (NNW)    
Max Wind Speed 51 mph    
Max Gust Speed 60 mph    
Visibility 10 miles    
Events Rain    
T = Trace of Precipitation, MM = Missing Value Source: NWS Daily Summary

Daily Weather History Graph

Daily Weather History Graph

Search for Another Location

Airport:

Trip Planner

Search our weather history database for the weather conditions in past years. The results will help you decide how hot, cold, wet, or windy it might be!

Date:

Astronomy

May. 10, 2014 Rise Set
Actual Time 5:55 AM PDT 7:47 PM PDT
Civil Twilight 5:28 AM PDT 8:14 PM PDT
Nautical Twilight 4:54 AM PDT 8:48 PM PDT
Astronomical Twilight 4:19 AM PDT 9:24 PM PDT
Moon 3:57 PM PDT (5/10) 3:20 AM PDT (5/10)
Length of Visible Light 14h 46m
Length of Day
13h 51m
Waxing Gibbous, 83% of the Moon is Illuminated
May 10
Waxing Gibbous
May 14
Full
May 21
Last Quarter
May 28
New
Jun 5
First Quarter

Hourly Weather History & Observations

Time (PDT) Temp. Windchill Dew Point Humidity Pressure Visibility Wind Dir Wind Speed Gust Speed Precip Events Conditions
12:12 AM 53.1 °F - 39.0 °F 59% 30.10 in 10.0 mi North 18.4 mph 33.4 mph N/A   Scattered Clouds
12:48 AM 52.0 °F - 39.0 °F 61% 30.00 in 10.0 mi NNW 17.3 mph 35.7 mph N/A   Partly Cloudy
1:48 AM 50.0 °F - 39.0 °F 66% 29.95 in 10.0 mi NNW 32.2 mph 39.1 mph N/A   Clear
2:48 AM 48.9 °F - 37.9 °F 66% 29.91 in 10.0 mi NNW 48.3 mph 59.8 mph 0.00 in Rain Light Rain
3:48 AM 46.0 °F 35.0 °F 37.9 °F 73% 29.91 in 10.0 mi NNW 43.7 mph 50.6 mph 0.00 in Rain Light Rain
4:13 AM 46.0 °F 35.3 °F 37.9 °F 73% 30.01 in 10.0 mi NNW 40.3 mph 54.1 mph 0.00 in Rain Light Rain
4:48 AM 45.0 °F 33.8 °F 37.0 °F 74% 29.91 in 10.0 mi NNW 40.3 mph 50.6 mph 0.00 in   Partly Cloudy
5:48 AM 45.0 °F 33.8 °F 35.1 °F 68% 29.91 in 10.0 mi NNW 40.3 mph 49.5 mph N/A   Clear
6:48 AM 45.0 °F 33.8 °F 28.9 °F 53% 29.94 in 10.0 mi NNW 40.3 mph 49.5 mph N/A   Clear
7:48 AM 45.0 °F 34.1 °F 30.9 °F 58% 29.95 in 10.0 mi NNW 38.0 mph 49.5 mph 0.00 in   Clear
8:48 AM 48.0 °F - 33.1 °F 56% 29.94 in 10.0 mi NNW 35.7 mph 43.7 mph N/A   Clear
9:48 AM 51.1 °F - 35.1 °F 54% 29.94 in 10.0 mi North 26.5 mph 40.3 mph N/A   Clear
10:48 AM 53.1 °F - 32.0 °F 45% 29.94 in 10.0 mi North 27.6 mph 38.0 mph 0.00 in   Clear
11:48 AM 55.9 °F - 28.9 °F 36% 29.93 in 10.0 mi North 26.5 mph 41.4 mph N/A   Clear
12:48 PM 57.0 °F - 28.9 °F 34% 29.92 in 10.0 mi North 25.3 mph 40.3 mph N/A   Clear
1:48 PM 59.0 °F - 30.0 °F 33% 29.90 in 10.0 mi North 24.2 mph 31.1 mph N/A   Clear
2:48 PM 60.1 °F - 27.0 °F 28% 29.88 in 10.0 mi NNW 31.1 mph 39.1 mph N/A   Clear
3:48 PM 60.1 °F - 21.0 °F 22% 29.87 in 10.0 mi NNW 27.6 mph 33.4 mph N/A   Clear
4:48 PM 60.1 °F - 28.0 °F 30% 29.86 in 10.0 mi NNW 25.3 mph 34.5 mph N/A   Clear
5:48 PM 57.9 °F - 26.1 °F 30% 29.86 in 10.0 mi NW 25.3 mph 38.0 mph N/A   Clear
6:48 PM 55.0 °F - 28.0 °F 35% 29.85 in 10.0 mi NW 24.2 mph 39.1 mph N/A   Clear
7:48 PM 52.0 °F - 28.9 °F 41% 29.84 in 10.0 mi NNW 19.6 mph 29.9 mph N/A   Clear
8:48 PM 51.1 °F - 27.0 °F 39% 29.84 in 10.0 mi NNW 29.9 mph 38.0 mph N/A   Clear
9:48 PM 50.0 °F - 28.0 °F 43% 29.85 in 10.0 mi NNW 33.4 mph 51.8 mph N/A   Overcast
10:48 PM 48.0 °F - 26.1 °F 42% 29.86 in 10.0 mi North 19.6 mph 34.5 mph N/A   Partly Cloudy
11:48 PM 46.9 °F - 27.0 °F 46% 29.88 in 10.0 mi North 13.8 mph 29.9 mph N/A   Mostly Cloudy